Simultaneous Nadir Overpasses (SNOs) Predictions

Prediction of SNOs between METOP-B and TERRA Satellite Orbit:

Table of predicted SNOs for the next 14.0 days since TLE Epoch: 4/19/2025
Index Date (METOP-B) Time (METOP-B) Lat,Lon (METOP-B) SZA (METOP-B ) Date (TERRA) Time (TERRA) Lat,Lon (TERRA) SZA (TERRA ) Distance(km) Time Diff (sec)
1 04/19/2025 20:12:45 -78.55, 61.91 112.95 04/19/2025 20:13:11 -78.55, 61.97 112.94 1.56 26
2 04/19/2025 21:03:14 78.99,-128.05 67.55 04/19/2025 21:02:20 78.99,-128.06 67.54 0.21 54
3 04/22/2025 09:52:21 78.65, 37.56 66.30 04/22/2025 09:52:22 78.66, 37.65 66.31 2.22 1
4 04/24/2025 22:41:27 78.33,-156.54 65.11 04/24/2025 22:42:23 78.33,-156.49 65.12 1.14 56
5 04/24/2025 23:31:56 -78.81, 13.58 114.37 04/24/2025 23:31:32 -78.80, 13.56 114.37 0.41 24
6 04/27/2025 12:21:03 -78.45, 179.19 115.58 04/27/2025 12:21:33 -78.46, 179.28 115.57 2.21 30
7 04/27/2025 13:11:30 78.96, -10.40 64.99 04/27/2025 13:10:40 78.95, -10.47 64.98 1.37 50
8 04/30/2025 02:00:34 78.71, 155.76 63.91 04/30/2025 02:00:38 78.70, 155.65 63.90 2.55 4
9 04/30/2025 02:49:18 -81.45, 1.31 110.88 04/30/2025 02:48:05 -81.95, 0.67 110.63 56.68 73
10 05/02/2025 14:49:40 78.32, -38.72 62.72 05/02/2025 14:50:37 78.32, -38.75 62.72 0.81 57



Historial Predications of SNOs between METOP-B and TERRA
